Find Starlink 11311

NORAD ID: 61253 Int'l Des: 2024-175 Owner: SPXS Country: US Constellation: starlink operational
LEOCIRCULAR

現在のビュー

3D地球を読み込み中...

About Starlink 11311

Starlink 11311 (NORAD 61253) is a starlink constellation satellite (v2 mini d2c) launched Sep 25, 2024 by SPXS of US. It operates in LEO, CIRCULAR orbit with a mass of 960.00 kg.

Starlink 11311について

説明を読み込み中...

次回通過

Passes for default location (London). Set your location on the main map for personalized predictions.

高度履歴

Loading altitude history...

軌道要素

1 61253U 24175L 26196.28178759 .00000454 00000-0 86231-5 0 9995
2 61253 53.1603 147.4690 0002124 111.8427 248.2817 15.69697380104619
Epoch: Jul 15, 2026 • Age: 19 hours

現在のステータス

高度 364.9 km
遠地点 / 近地点 N/A
速度 7.70 km/s
衛星直下点 52.95°N, 73.54°W
打ち上げ日 Sep 25, 2024
運用期間 1.8 years
タイプ internet

技術仕様

分類 Payload
質量 960.00 kg
乾燥質量 910.00 kg
総質量 960.00 kg
長さ 0.30 m
直径 4.10 m
スパン 29.00 m
形状 Box + pan
製造者 SPXS
バスタイプ Starlink V2MD
フェーズステータス In Orbit
所有者/国 SPXS/US

Most Searched